Showing default

YAOGAN-31 A, 43275

Orbit data source: Space-Track

YAOGAN-31 A, 43275 is a payload satellite owned by PLA SSF (CN) in LEO that was launched on Tue, 10 Apr 2018 UTC via a CHANG ZHENG 4C launch vehicle from the Jiuquan Satellite Launch Center, China (JSC). Payloads include a variety of satellites, spacecraft, and rockets equipped with specific instruments for various scientific and technological missions. These include communications satellites like Starlink; space stations such as the ISS; scientific satellites like the Hubble; Earth observation satellites from companies like Planet Labs, Umbra, and HawkEye 360; GPS; miniature CubeSats for education and research; and military/defense satellites.

Loading next visibility...
YAOGAN-31 A details
Identifier
43275, 2018-034A
Orbit
LEO
Last TLE update4 hours ago
Origin
Flag of CNPLA SSF (CN / PRC)
ManufacturerDFH
MissionOperational Defense Sigint
Bus & MotorJB-8B, Unknown motor
Mass~500 kg wet, ~500 kg dry
Launch date (UTC)
2018-04-10 (7 years ago)
Launch vehicle
CHANG ZHENG 4C
Launch site
Jiuquan Satellite Launch Center, China (JSC)
Object type
Payload
Rocket body
Debris
Shape & HBRBox + 2 Pan, 1 m
Radar Cross Section0.446 m², Large (>1 m²)

Expand to show TLE details & history

TLE from 4 hours ago
0 YAOGAN-31 A
1 43275U 18034A   24361.46327009  .00000074  00000-0  23791-3 0  9990
2 43275  63.3988  34.3822 0227338   5.7797 354.5771 13.45376241329868
Epoch: 2024-12-26T11:07Z
Definitive object data (Epoch: 2024-12-26T11:07:06.535Z)
Latitude-0.00006°
Longitude132.16263°
Altitude922.101 km
Speed7.474 km/s
True Right ascension02h 17m 31s
True Declination0° 00' 00"
Sunlit
Object was in daylight at TLE epoch
Visualization TLE readout
Latitude60.26119°
Longitude-108.97895°
Altitude1,119.209 km
Speed7.289 km/s
Apparent Right ascension05h 34m 59s
Apparent Declination26° 59' 41"
Sunlit
Object is in full shadow
Visualization observer readout
Local Sidereal Time14:33:12
Azimuth319.721° NNW
Elevation-10.848°
Doppler factor1
Orbital elements
Apogee altitude1,257.885 km
Perigee altitude918.411 km
Semi-major axis7,466.285 km
Eccentricity0.0227338
Inclination63.3988°
RAAN34.3822°
Arg. of periapsis5.7797°
True anomaly354.32374°
Mean anomaly354.5771°
Eccentric anomaly354.45115°
Mean motion3.36424 °/min
BSTAR0.00023791
Orbital period107.01 mins
Loading maneuver chart data...
Loading historical data...
Loading historical data...
Loading historical data...
Loading historical data...
Loading historical data...
Loading historical data...
Loading historical data...

YAOGAN-31 A Visibility forecast

Observer location: undefined°, undefined

Span
Click to sort rows by Start time (UTC) header in descending order
Start Az.
Max El. time (UTC)
Max El. Az.
Max El.
End time (UTC)
End Az.
5 mins2024-12-26 15:21:14.824Z273.452° WNW2024-12-26 15:23:14.824Z257.121° W12.645°2024-12-26 15:26:14.824Z233.292° WSW
9 mins2024-12-27 03:18:14.824Z162.319° S2024-12-27 03:22:14.824Z104.698° ESE27.567°2024-12-27 03:27:14.824Z52.46° ENE
10 mins2024-12-27 05:08:14.824Z249.004° W2024-12-27 05:12:14.824Z316.284° NNW35.396°2024-12-27 05:18:14.824Z24.338° NE
4 mins2024-12-27 07:03:14.824Z324.453° NNW2024-12-27 07:04:14.824Z334.296° NNW12.936°2024-12-27 07:07:14.824Z2.138° NNE
8 mins2024-12-27 10:49:14.824Z1.946° NNE2024-12-27 10:52:14.824Z32.402° NE19.245°2024-12-27 10:57:14.824Z77.041° E
13 mins2024-12-27 12:38:14.824Z331.078° NNW2024-12-27 12:44:14.824Z60.824° ENE43.674°2024-12-27 12:51:14.824Z138.474° SSE
9 mins2024-12-27 14:30:14.824Z290.231° WNW2024-12-27 14:34:14.824Z250.237° W22.443°2024-12-27 14:39:14.824Z205.037° SW
|